Location: Leverkusen
(51.0459°N, 7.0192°E)
Time: 00:57:00
(UTC+02:00)

ISS - Visible Passes

Search period start: 27 June 2022 00:00
Search period end: 07 July 2022 00:00
Orbit: 414 x 420 km, 51.6° (Epoch: 26 June)

Date Brightness Start Highest point End Pass type
(mag) Time Alt. Az. Time Alt. Az. Time Alt. Az.
28 Jun -1.2 04:10:07 10° SSE 04:10:59 11° SE 04:11:52 10° ESE visible
30 Jun -2.1 04:07:51 11° SSW 04:10:22 22° SE 04:13:02 10° E visible
01 Jul -1.7 03:20:52 14° SSE 03:21:53 15° SE 03:23:55 10° ESE visible
02 Jul -3.1 04:06:33 13° SW 04:09:20 41° SSE 04:12:31 10° E visible
03 Jul -2.7 03:19:11 22° S 03:20:30 29° SSE 03:23:27 10° E visible
04 Jul -2.2 02:31:40 20° SE 02:31:40 20° SE 02:34:06 10° E visible
04 Jul -3.8 04:04:32 10° WSW 04:07:51 70° SSE 04:11:11 10° E visible
05 Jul -1.3 01:43:58 11° ESE 01:43:58 11° ESE 01:44:19 10° ESE visible
05 Jul -3.6 03:16:47 22° SW 03:18:39 53° SSE 03:21:56 10° E visible
06 Jul -3.2 02:28:54 36° S 02:29:21 38° SSE 02:32:29 10° E visible
06 Jul -3.8 04:02:33 10° W 04:05:53 85° NNW 04:09:14 10° E visible
